Terminal Aerodrome Forecast
Issued by NWS Upton, NY

Home | Current Version | Previous Version | Text Only | Print | Product List | Glossary On
Versions: 1 2 3 4 5 6 7 8 9 10 11 12 13 14 15 16 17 18 19 20 21 22 23 24 25 26 27 28 29
282
FTUS41 KOKX 200543
TAFJFK
TAF
KJFK 200543Z 2006/2112 34012KT P6SM FEW050
      TEMPO 2006/2010 34014G20KT
     FM201400 34013G20KT P6SM SKC
     FM202200 35011KT P6SM SKC
     FM210100 01008KT P6SM SKC
     FM210500 03004KT P6SM SKC=

USA.gov is the U.S. government's official web portal to all federal, state and local government web resources and services.